Regional Weather Roundup
Issued by NWS Wilmington, NC

Home | Current Version | Previous Version | Text Only | Print | Product List | Glossary On
Versions: 1 2 3 4 5 6 7 8 9 10 11 12 13 14 15 16 17 18 19 20 21 22 23 24 25 26 27 28 29 30 31 32 33 34 35 36 37 38 39 40 41 42 43 44 45 46 47 48 49 50
000
ASUS42 KILM 051913
RWRILM
RWRILM
REGIONAL HOURLY WEATHER ROUNDUP
NATIONAL WEATHER SERVICE WILMINGTON NC
300 PM EDT TUE MAY 05 2015

NOTE: "FAIR" INDICATES FEW OR NO CLOUDS BELOW 12,000 FEET WITH NO
SIGNIFICANT WEATHER AND/OR OBSTRUCTIONS TO VISIBILITY.

...............WFO WILMINGTON COUNTY WARNING AREA...............

......COASTAL NC AND SC COUNTIES......

CITY           SKY/WX    TMP DP  RH WIND       PRES   REMARKS
WILMINGTON     SUNNY     75  53  46 E10G16    30.33F
N MYRTLE BEACH SUNNY     76  55  48 SE12      30.32F
MYRTLE BEACH   SUNNY     75  55  50 SE14      30.34F

......INLAND NC AND SC COUNTIES.......

CITY           SKY/WX    TMP DP  RH WIND       PRES   REMARKS
LUMBERTON      SUNNY     82  53  36 SE10      30.29F
ELIZABETHTOWN  MOSUNNY   81  51  35 SE3       30.30F
WHITEVILLE     PTSUNNY   80  53  39 SE7       30.29F
FLORENCE       MOSUNNY   81  53  37 VRB3      30.29F
DARLINGTON     SUNNY     82  54  36 SE8       30.30F

....................REST OF NORTH CAROLINA......................

.........EASTERN NC.........

CITY           SKY/WX    TMP DP  RH WIND       PRES   REMARKS
CAPE HATTERAS  SUNNY     73  56  54 S8        30.35F
JACKSONVILLE   SUNNY     81  48  32 S12G18    30.33F
MOREHEAD CITY  SUNNY     76  54  46 SE13      30.34F
KENANSVILLE    SUNNY     79  48  33 S5        30.31F
NEW BERN       MOSUNNY   81  48  31 SE10      30.32F
ELIZABETH CITY SUNNY     80  52  37 SW14      30.29F

.........CENTRAL NC.........

CITY           SKY/WX    TMP DP  RH WIND       PRES   REMARKS
RALEIGH DURHAM MOSUNNY   81  59  47 SW8       30.28F
ROCKY MOUNT    SUNNY     81  54  39 VRB7      30.29F
ROANOKE RAPIDS NOT AVBL
FAYETTEVILLE   SUNNY     82  52  35 SE7       30.29F
HOFFMAN        SUNNY     81  51  35 S5G15     30.32F

.........WESTERN NC.........

CITY           SKY/WX    TMP DP  RH WIND       PRES   REMARKS
CHARLOTTE      MOSUNNY   81  53  37 CALM      30.29F
GREENSBORO     MOSUNNY   81  56  42 SW7       30.27F
HICKORY        NOT AVBL
BOONE          NOT AVBL
ASHEVILLE      NOT AVBL

.....................REST OF SOUTH CAROLINA.....................

.........EASTERN SC.........

CITY           SKY/WX    TMP DP  RH WIND       PRES   REMARKS
CHARLESTON     MOSUNNY   78  53  41 E10       30.30F
BEAUFORT MCAS  PTSUNNY   78  55  44 E10       30.28F
HILTON HEAD    SUNNY     73  59  60 NE7G18    30.30F

.........CENTRAL SC.........

CITY           SKY/WX    TMP DP  RH WIND       PRES   REMARKS
COLUMBIA       MOSUNNY   82  53  36 E10G23    30.27F
ORANGEBURG     SUNNY     79  51  37 E10G18    30.29F
SUMTER SHAW    MOSUNNY   81  54  39 E13       30.27F

.........WESTERN SC.........

CITY           SKY/WX    TMP DP  RH WIND       PRES   REMARKS
GREENVILLE     NOT AVBL
ROCK HILL      MOSUNNY   79  55  43 MISG      30.29F
ANDERSON       MOSUNNY   81  55  40 MISG      30.28F
CLEMSON        NOT AVBL
GREENWOOD      SUNNY     81  55  40 E8        30.29F


...................COASTAL AND OFFSHORE REPORTS..................

................LOCAL PIERS AND NC RESERVE................


STATION/POSITION TIME  SKY/WX   TEMP    WIND        PRES    VSBY
                                AIR SEA DIR/SP/G
                 (UTC)          (F)     (DEG/KT/KT) (MB)    (MI)
JOHNY MRCER PIER 1800            71 72  100/  6/  6 1027.3F
NC RESRV MASNBRO NOT AVBL
OCEAN CREST PIER NOT AVBL
SPRINGMAID  PIER 1800            71 70   80/  9/ 10 1027.3F


................COASTAL AND OFFSHORE BUOYS................


STATION/POSITION TIME  SKY/WX   TEMP    WIND        PRES    VSBY
                                AIR SEA DIR/SP/G
                 (UTC)          (F)     (DEG/KT/KT) (MB)    (MI)
DIMNDSHOAL 41025 1850            73 77  150/ 14/ 16 1027.8F
WVE H/P(F/S)=  3/11 WND WVE H/P(F/S)=  2/ 3 SWL H/P/D(F/S/D)=  2/ 80/11

CAPE LOOKOUT     1900            71     140/  8/  9 1027.3F
ONSLOW BAY 41036 NOT AVBL
5 WRITEBCH 41038 NOT AVBL
MASONBORO  41110 1819               70                N/A
WVE H/P(F/S)=  3/ 5 WND WVE H/P(F/S)=  3/ 5

WILM HARBR 41108 1811               71                N/A
WVE H/P(F/S)=  2/ 6 WND WVE H/P(F/S)=  2/ 6

27WRITEBCH 41037 1800            69 71  140/ 10/ 14   N/A
FRYING PAN 41013 1850            73 72   80/ 10/ 12 1027.3F
WVE H/P(F/S)=  3/ 5 WND WVE H/P(F/S)=  2/ 4 SWL H/P/D(F/S/D)=  3/130/ 5

SUNST NRSH 41024 1808            71     130/ 10/ 14 1027.3F
CAPRS NRSH 41029 1808            71      60/ 14/ 17 1026.5F
EDISTO     41004 1850            72 73   60/ 14/ 16 1025.4F
WVE H/P(F/S)=  3/ 6 WND WVE H/P(F/S)=  3/ 6 SWL H/P/D(F/S/D)=  2/ 7



..........OFFSHORE BUOYS BEYOND 100 NM OFFSHORE...........
.....IN A TRIANGLE---HAT TO BERMUDA TO BAHAMAS TO HAT.....


STATION/POSITION TIME  SKY/WX   TEMP    WIND        PRES    VSBY
                                AIR SEA DIR/SP/G
                 (UTC)          (F)     (DEG/KT/KT) (MB)    (MI)
150E HAT   41001 NOT AVBL
W BERMUDA  41048 1850            69 70   90/ 14/ 16 1027.6F
WVE H/P(F/S)=  4/11 WND WVE H/P(F/S)=  2/ 6 SWL H/P/D(F/S/D)=  3/ 40/11

ATLANTIC S 41049 1850            74 77   80/ 16/ 19 1025.0F
WVE H/P(F/S)=  6/11 WND WVE H/P(F/S)=  5/ 5 SWL H/P/D(F/S/D)=  3/ 10/11

E BAHAMAS  41046 1850            80 80  120/ 14/ 16 1020.4F
WVE H/P(F/S)=  6/ 6 WND WVE H/P(F/S)=  5/ 6 SWL H/P/D(F/S/D)=  5/ 50/ 7

NE BAHAMAS 41047 1850            76 78  100/ 19/ 23 1021.1F
WVE H/P(F/S)=  9/ 7 WND WVE H/P(F/S)=  8/ 7 SWL H/P/D(F/S/D)=  2/ 20/11

120E CANVRL41010 1820            73 78   90/ 17/ 21 1021.6F

END


USA.gov is the U.S. government's official web portal to all federal, state and local government web resources and services.